Simultaneous Nadir Overpasses (SNOs) Predictions

Prediction of SNOs between GOES-14 and NPP Satellite Orbit:

Table of predicted SNOs for the next 14.0 days since TLE Epoch: 9/3/2021
Index Date Time (GOES-14) GOES-14 Lat,Lon NPP Lat,Lon Distance(km) Time Diff (sec)
1 09/04/2021 08:05:44 0.40,-104.15 -0.39,-100.53 412.32 80
2 09/05/2021 20:27:42 -0.39,-104.30 -0.73,-105.85 176.67 80
3 09/06/2021 20:11:38 -0.39,-104.30 0.27,-101.32 340.29 80
4 09/08/2021 08:33:26 0.39,-104.17 0.91,-106.59 274.51 80
5 09/09/2021 08:12:02 0.39,-104.16 -0.09,-102.05 240.32 80
6 09/10/2021 20:33:59 -0.39,-104.27 -1.09,-107.36 352.45 80
7 09/11/2021 20:17:54 -0.39,-104.27 -0.09,-102.83 164.48 80
8 09/13/2021 08:39:43 0.38,-104.17 1.26,-108.10 447.11 80
9 09/14/2021 08:18:18 0.38,-104.16 0.26,-103.56 67.24 80
10 09/16/2021 20:21:32 -0.37,-104.23 -0.37,-104.35 13.48 80
